Location: ????
(32.1228°N, 34.8377°E)
Time: 00:58:52
(UTC+00:00)

PSLV R/B - Pass Details

Date: 21 September 2020
Orbit: 593 x 630 km, 97.9° (Epoch: 21 October)

Event Time Altitude Azimuth Distance (km) Brightness Sun altitude
Rises 01:23:29 0° 15° (NNE) 2,839 7.4 -26.8°
Reaches altitude 10° 01:25:41 10° 17° (NNE) 1,931 6.5 -26.3°
Enters shadow 01:29:46 69° 93° (E) 637 3.7 -25.5°
